sat.trackr.live / text

‹ back to catalog

ONEWEB-0613

NORAD 56071 · 2023-043AB

PAYLOAD ACTIVE UNKNOWN

§ Identity

Operator
Country
UK
Launch date
2023-03-26
Launch site
SRILR
Launch vehicle
Mass (kg)
RCS (m²)

Purposes: comms

External: N2YO · Heavens-Above · Gunter

§ Orbital elements

Epoch: 2026-09-19T22:42:52.037568Z

Period
109.46 min
Inclination
87.8983°
Eccentricity
0.0001941
Mean motion
13.15547193 rev/d
Perigee alt
1,200.3 km
Apogee alt
1,203.2 km
Semi-major
7,579.9 km
B*
9.1633e-5
RAAN
240.3261°
Arg perigee
76.0082°
Mean anomaly
284.1264°
Rev number
16,889

§ Raw data

ONEWEB-06131 56071U 23043AB  26262.94643562  .00000047  00000+0  91633-4 0  99942 56071  87.8983 240.3261 0001941  76.0082 284.1264 13.15547193168898

JSON: /api/v1/satellites/56071 · /tle

For live sub-satellite position, see the globe view (requires WebGL).

§ Visibility from observer

Set your observer location to see the next 7 days of passes ≥ 10°. The values pass through the URL so the page stays shareable.

No JS? Fill the form by hand. The geolocation button needs JavaScript.